Regional Weather Roundup
Issued by NWS

Home | Current Version | Previous Version | Text Only | Print | Product List | Glossary On
Versions: 1 2 3 4 5 6 7 8 9 10 11 12 13 14 15 16 17 18 19 20 21 22 23 24 25 26 27 28 29 30 31 32 33 34 35 36 37 38 39 40 41 42 43 44 45 46 47 48 49 50
000
ASHW40 PHFO 270143
RWRHI

WEATHER ROUNDUP FOR HAWAII
NATIONAL WEATHER SERVICE HONOLULU HI
300 PM HST WED NOV 26 2014

THIS IS AN AUTOMATED REPORT THAT HAS NOT BEEN QUALITY CONTROLLED.

NOTE..."FAIR" INDICATES FEW OR NO CLOUDS BELOW 12,000 FEET WITH NO
SIGNIFICANT WEATHER AND/OR OBSTRUCTIONS TO VISIBILITY.

* - THESE SITES REPORT LIMITED FIELDS

HIZ001>004-270200-
KAUAI-NIIHAU-

CITY           SKY/WX    TMP DP  RH WIND       PRES   REMARKS
LIHUE APT      MOSUNNY   78  59  51 NE22      30.05F
PORT ALLEN*      N/A     81 N/A N/A E17G24      N/A
POIPU*           N/A     79 N/A N/A NE9G23      N/A
PRINCEVILLE*     N/A     75 N/A N/A MISG        N/A
KOKOLE POINT*  NOT AVBL
MOLOAA DAIRY*  NOT AVBL
WAIMEA HTS*      N/A     82  55  39 SW8G14      N/A
PUU OPAE*        N/A     72  54  53 E5G17       N/A
PUU LUA*       NOT AVBL
MAKAHA RIDGE*  NOT AVBL
$$

HIZ005>011-270200-
OAHU-

CITY           SKY/WX    TMP DP  RH WIND       PRES   REMARKS
HONOLULU       MOSUNNY   79  62  56 N16G24    29.99F
KALAELOA       MOSUNNY   79  60  52 NE9G18    30.01S
KANEOHE MCB    MOSUNNY   78  63  59 NE14G23   30.02F
WHEELER FIELD  PTSUNNY   73  60  63 N15       30.02F
BELLOWS*         N/A    N/A N/A N/A NE17G25     N/A
KAHUKU*          N/A    N/A N/A N/A NE8G17      N/A
WHEELER*       NOT AVBL
WAIANAE HARBOR NOT AVBL
DILLINGHAM*      N/A     79  64  61 NE9G18      N/A
KAHUKU TRN*      N/A    N/A N/A N/A NE10G24     N/A
KAWAILOA*        N/A    N/A N/A N/A NE14G25     N/A
KII*             N/A     75  64  69 NE18G24     N/A
MAKUA RANGE*     N/A     75  61  60 NE17G30     N/A
OAHU FOREST NW   N/A     63  12  14 CALM        N/A
SCHOFIELD BRK*   N/A     72  59  64 MISG        N/A
SCHOFIELD S*   NOT AVBL
WAIANAE VLY*     N/A     75  59  57 E9G30       N/A
KUAOKALA*        N/A     72  61  68 CALM        N/A
HONOULIUULI*   NOT AVBL
MOKUOLOE IS*     N/A    N/A N/A N/A MISG        N/A
PALEHUA*         N/A     82  61  47 CALM        N/A
WAIAWA PHB*    NOT AVBL
$$

HIZ012>013-270200-
MOLOKAI-

CITY           SKY/WX    TMP DP  RH WIND       PRES   REMARKS
MOLOKAI AIRPT  MOSUNNY   76  62  62 NE18G26   30.01S
KALAUPAPA      NOT AVBL
MAKAPULAPAI*     N/A     75  63  64 NE17G24     N/A
MOLOKAI 1*       N/A     64  61  88 N9G24       N/A
PUU ALII*        N/A     56  56 100 E2G12       N/A
$$

HIZ016-270200-
KAHOOLAWE-

CITY           SKY/WX    TMP DP  RH WIND       PRES   REMARKS
KAHOOLAWE*       N/A     72 N/A N/A NE17G28     N/A
HAKIOAWA*      NOT AVBL
HONOKANAIA*      N/A     82  63  51 VRB21G33  29.99S
KANELOA*         N/A     79  66  65 NE22G35     N/A
KEALIALALO*    NOT AVBL
LUA MAKIKA*    NOT AVBL
$$

HIZ014>015-270200-
LANAI-

CITY           SKY/WX    TMP DP  RH WIND       PRES   REMARKS
LANAI CITY     MOSUNNY   75  61  60 NE26      30.00
LANAI 1*         N/A     73  66  78 NE25G40     N/A
$$

HIZ017>028-270200-
MAUI-

CITY           SKY/WX    TMP DP  RH WIND       PRES   REMARKS
KAHULUI        PTSUNNY   80  63  55 NE16      30.01F
KAPALUA-W MAUI MOSUNNY   77  64  65 NE20G28   30.00
HANA AIRPORT   CLOUDY    72  64  78 CALM      30.05R
HANA*            N/A     75 N/A N/A NW6         N/A
HALEAKALA SUMM   N/A     59  16  18 N6          N/A
MAALAEA BAY*   NOT AVBL
HALEAKALA*     NOT AVBL
KAUPO GAP*       N/A     64  61  88 S3G12       N/A
KULA 1*          N/A     59  53  81 NW7         N/A
$$

HIZ023>026-270200-
BIG ISLAND OF HAWAII COAST AND LOWER SLOPES-

CITY           SKY/WX    TMP DP  RH WIND       PRES   REMARKS
KAILUA KONA    MOSUNNY   84  68  58 S10       29.91F
HILO           LGT RAIN  71  68  90 NW6       30.01S FOG
HONOKAA*       NOT AVBL
KAWAIHAE MWT*    N/A     90 N/A N/A W5          N/A
KAWAIHAE*        N/A     88 N/A N/A S2G9        N/A
SOUTH POINT*     N/A     75 N/A N/A NE18G25     N/A
UPOLU AIRPORT*   N/A    N/A N/A N/A E18G28      N/A
KAMUELA*       MOCLDY    66  61  82 NE17      30.09R HAZE
HAKALAU*         N/A     55  54  95 NE6G13      N/A
KALOKO-HONOKO*   N/A     84  68  58 S7        29.92R
PALI 2*          N/A    N/A N/A N/A NE20G31     N/A
KEALAKOMO*       N/A     72  54  53 NE22G35     N/A
KAUPULEHU*       N/A     81  57  44 NE17G25     N/A
KAPAPALA*      NOT AVBL
LOWER KAHUKU*    N/A     68  64  88 E3G9        N/A
PUHE CS*       NOT AVBL
PUHO CS*         N/A     83  68  59 SW5G10      N/A
PTA KEAMUKU*     N/A     68  59  73 NE15G30     N/A
WAIKOLOA*        N/A     77  59  53 NE23G35     N/A
$$

HIZ027>028-270200-
BIG ISLAND OF HAWAII INTERIOR AND SUMMMITS-

CITY           SKY/WX    TMP DP  RH WIND       PRES   REMARKS
BRADSHAW FIELD SUNNY     68  51  54 W8G15     30.27F
MK VISITOR CEN NOT AVBL
MAUNA KEA*       N/A     46   7  19 NW10        N/A
MAUNA LOA*       N/A     54  37  54 MISG        N/A
MAUNA LOA 1*   NOT AVBL
PTA KIPUKA*      N/A     68  52  56 NW7G14      N/A
PTA RANGE 17*  NOT AVBL
PTA WEST*        N/A     72  54  53 VRB10G18    N/A
NENE CABIN*      N/A    N/A N/A N/A SE3         N/A
AHUMOA*          N/A     60  57  90 N6G13       N/A
PTA PORTABLE*  NOT AVBL
PUU MALI*      NOT AVBL
$$

HIC003-270200-
NORTHWEST ISLANDS-

CITY           SKY/WX    TMP DP  RH WIND       PRES   REMARKS
MIDWAY ISLAND  PTSUNNY   75  66  73 SE15      30.08F
MIDWAY NOS*    NOT AVBL
FRENCH FRIGATE NOT AVBL
$$

PHZ110>124-180-270200-
BUOY REPORTS

STATION/POSITION TIME  TEMP    WIND        PRES    WAVE   SWELL
                       AIR SEA DIR/SP/G            HT/PER HT/DIR
                 (UTC) (F)     (DEG/KT/KT) (MB)    (FT/S) (FT/D)
BUOY 51001       NOT AVBL
BUOY 51101       0100   72 77   40/ 16/ 19 1019.4F  10/11  10/ 20
BUOY 51100       0100   73      40/ 14       N/A
BUOY 51003       0100   78 80   40/ 19/ 23 1014.4F   8/ 8   5
BUOY 51004       NOT AVBL
BARBERS PT BUOY  NOT AVBL
WAIMEA BAY BUOY  0100      79                N/A    11/13   8/ 10
KAILUA BAY BUOY  0100      79                N/A    10/13   7/ 20
LANAI BUOY       0100      79                N/A     3/13   2/300
BARBERS PT 2     0100      78                N/A     4/13   3/320
PAUWELA MAUI     0100      79                N/A    11/13  10/ 20
HILO             0100      80                N/A    11/13   8/360
KANEOHE BAY BUOY 0100      78                N/A     9/14   7/ 10
HANALEI KAUAI    NOT AVBL
KAHULUI HARBOR   0100   75 78   40/ 10/ 14 1016.2F
HONOLULU HARBOR  0100   77      50/ 12/ 22 1016.1R
KILO NALU        NOT AVBL
HILO HARBOR      0100   71     350/  7/ 12 1015.6F
MOKUOLOE         0100   76      50/ 15/ 19   N/A
NAWILIWILI       0100      81                N/A
WHOTS BUOY       NOT AVBL
BUOY 51028       NOT AVBL
$$

......................KEY........................................
  SKY/WX - SKY CONDITIONS/PRESENT WEATHER
  TMP    - TEMPERATURE IN FAHRENHEIT
  DWPT   - DEWPOINT IN FAHRENHEIT
  RH     - RELATIVE HUMIDITY IN PERCENT
  WIND   - DIRECTION AND SPEED /MPH FOR ISLANDS...KTS FOR BUOYS/
  PRES   - MEAN SEA LEVEL PRESSURE IN INCHES OF HG
  VSB    - VISIBILITY IN MILES
  HX     - HEAT INDEX
  WCI    - WIND CHILL INDEX
  VRB    - VARIABLE WIND DIRECTION
  N/A    - NOT AVAILABLE



USA.gov is the U.S. government's official web portal to all federal, state and local government web resources and services.